HORIZONS-2

Last updated on Sun Apr 12 2026 00:02:51 GMT+0000 (Coordinated Universal Time)

1 32388U 07063B 26101.50604399 -.00000250 00000+0 00000+0 0 9992 2 32388 2.4293 81.4230 0003167 312.1981 274.4939 1.00273254 67146
UTC large
Height (km)
Speed (km/s)
/
Latitude / Longitude
Inclination (degrees)
Orbital Period (minutes)
Azimuth
Elevation
Range (km)
Doppler Factor

Next 0 passes for location: London (51.5072 / 0.1276)

Sorry there are no passes over London.
HORIZONS-2